User: anonymous   Login
Location: DARK SKY Beskydy - Park tmavé oblohy, www.darkskybeskydy.cz
(49.4926°N, 18.5016°E)
Time: 08:39:39
(UTC+02:00)
Language:

Transit 4A - Orbit

View from above orbital plane
View from above orbital plane
View from above satellite
View from above satellite

Ground track
Ground track

The orbit data is extracted from the following two-line orbital elements,

1 00116U 61015A   24166.51186851  .00000040  00000-0  89154-4 0  9990
2 00116  66.8096 243.3035 0068955  64.4791 296.3398 13.92050704194712
Epoch (UTC): 14 June 2024 12:17:05
Eccentricity: 0.0068955
inclination: 66.8096°
perigee height: 871 km
apogee height: 972 km
right ascension of ascending node: 243.3035°
argument of perigee: 64.4791°
revolutions per day: 13.92050704
mean anomaly at epoch: 296.3398°
orbit number at epoch: 19471

The dashed part of the orbit path shows where the satellite is in the earth's shadow,  

DLR